QPF
0.00 0.00 0.00 0.00 0.00 0.00 0.00 0.00 0.00 0.00 0.00 0.00 0.01 0.01 0.01 0.01 0.02 0.02 0.02 0.03 0.03 0.04 0.04 0.05 0.06 0.07 0.07 0.08 0.10 0.10 0.11 0.11 0.12 0.12 0.12 0.11 0.08 0.09 0.09 0.09 0.08 0.07 0.07 0.07
0.00 0.00 0.00 0.00 0.00 0.00 0.00 0.00 0.00 0.00 0.00 0.01 0.01 0.01 0.01 0.02 0.02 0.02 0.03 0.06 0.07 0.05 0.05 0.05 0.07 0.08 0.10 0.12 0.14 0.14 0.15 0.12 0.10 0.10 0.11 0.09 0.07 0.07 0.06 0.06 0.07 0.07 0.06 0.05
0.01 0.01 0.01 0.01 0.00 0.00 0.00 0.00 0.01 0.00 0.01 0.01 0.01 0.02 0.02 0.01 0.01 0.02 0.04 0.09 0.14 0.10 0.08 0.07 0.11 0.13 0.11 0.13 0.14 0.10 0.09 0.08 0.07 0.07 0.06 0.05 0.05 0.06 0.05 0.04 0.04 0.04 0.05 0.05
0.01 0.02 0.02 0.01 0.01 0.01 0.01 0.01 0.01 0.01 0.01 0.01 0.01 0.01 0.01 0.01 0.01 0.01 0.03 0.06 0.09 0.10 0.10 0.10 0.10 0.10 0.08 0.07 0.07 0.07 0.06 0.06 0.06 0.07 0.05 0.04 0.03 0.03 0.03 0.03 0.03 0.03 0.03 0.04
0.02 0.02 0.02 0.02 0.01 0.01 0.01 0.01 0.01 0.01 0.01 0.01 0.01 0.01 0.01 0.01 0.01 0.01 0.01 0.02 0.03 0.05 0.06 0.08 0.09 0.10 0.09 0.07 0.06 0.06 0.05 0.05 0.05 0.04 0.04 0.05 0.04 0.04 0.04 0.04 0.03 0.03 0.04 0.05
0.02 0.02 0.02 0.02 0.01 0.01 0.01 0.02 0.01 0.01 0.01 0.01 0.01 0.02 0.01 0.01 0.01 0.01 0.01 0.02 0.03 0.04 0.03 0.05 0.07 0.09 0.10 0.09 0.08 0.07 0.06 0.04 0.04 0.05 0.06 0.05 0.06 0.07 0.07 0.06 0.07 0.07 0.06 0.07
0.02 0.02 0.02 0.02 0.02 0.02 0.02 0.01 0.01 0.02 0.02 0.03 0.02 0.03 0.02 0.02 0.02 0.02 0.02 0.02 0.02 0.02 0.02 0.02 0.05 0.07 0.09 0.09 0.08 0.07 0.08 0.07 0.06 0.07 0.08 0.09 0.10 0.10 0.10 0.11 0.11 0.12 0.12 0.11
0.03 0.02 0.02 0.02 0.02 0.03 0.02 0.01 0.01 0.03 0.03 0.03 0.02 0.03 0.04 0.04 0.05 0.04 0.03 0.02 0.02 0.03 0.02 0.02 0.04 0.05 0.05 0.07 0.07 0.06 0.07 0.08 0.07 0.07 0.08 0.10 0.11 0.12 0.12 0.14 0.15 0.15 0.15 0.14
0.03 0.02 0.01 0.02 0.03 0.02 0.01 0.01 0.02 0.04 0.04 0.03 0.03 0.02 0.03 0.03 0.03 0.02 0.01 0.02 0.03 0.06 0.04 0.03 0.03 0.04 0.05 0.05 0.04 0.04 0.05 0.07 0.08 0.06 0.06 0.07 0.07 0.08 0.10 0.13 0.14 0.14 0.13 0.13
0.04 0.03 0.02 0.02 0.03 0.03 0.03 0.03 0.03 0.04 0.03 0.02 0.02 0.02 0.02 0.03 0.03 0.02 0.01 0.02 0.02 0.04 0.04 0.04 0.05 0.05 0.06 0.05 0.03 0.02 0.04 0.05 0.06 0.05 0.05 0.06 0.07 0.08 0.09 0.09 0.11 0.11 0.12 0.12
0.05 0.05 0.04 0.04 0.03 0.04 0.04 0.04 0.03 0.03 0.03 0.02 0.02 0.01 0.01 0.02 0.04 0.04 0.03 0.03 0.03 0.04 0.04 0.05 0.06 0.06 0.06 0.05 0.04 0.03 0.04 0.06 0.06 0.05 0.04 0.05 0.07 0.09 0.09 0.08 0.09 0.10 0.10 0.10
0.04 0.05 0.06 0.04 0.03 0.04 0.06 0.07 0.05 0.03 0.02 0.01 0.01 0.01 0.02 0.03 0.06 0.08 0.07 0.05 0.05 0.06 0.06 0.06 0.06 0.06 0.07 0.07 0.06 0.06 0.05 0.06 0.06 0.06 0.07 0.07 0.07 0.08 0.10 0.12 0.12 0.13 0.14 0.13
0.05 0.05 0.06 0.07 0.05 0.05 0.06 0.07 0.06 0.03 0.02 0.02 0.01 0.01 0.02 0.03 0.03 0.06 0.08 0.06 0.07 0.07 0.05 0.05 0.04 0.04 0.05 0.07 0.09 0.10 0.09 0.08 0.07 0.08 0.09 0.11 0.11 0.13 0.14 0.15 0.16 0.15 0.14 0.12
0.05 0.04 0.04 0.07 0.10 0.06 0.03 0.03 0.03 0.02 0.02 0.01 0.02 0.02 0.03 0.02 0.02 0.03 0.04 0.04 0.05 0.06 0.05 0.05 0.04 0.04 0.05 0.07 0.08 0.10 0.11 0.13 0.12 0.12 0.12 0.13 0.13 0.14 0.15 0.17 0.19 0.18 0.17 0.15
0.07 0.05 0.06 0.07 0.08 0.07 0.03 0.01 0.01 0.01 0.01 0.02 0.02 0.02 0.02 0.01 0.01 0.01 0.01 0.02 0.03 0.03 0.04 0.04 0.05 0.04 0.05 0.07 0.08 0.08 0.09 0.11 0.10 0.09 0.10 0.10 0.10 0.11 0.12 0.12 0.13 0.13 0.15 0.17
0.07 0.07 0.08 0.07 0.07 0.06 0.04 0.02 0.01 0.01 0.02 0.04 0.04 0.01 0.01 0.01 0.01 0.01 0.01 0.01 0.01 0.01 0.02 0.04 0.03 0.04 0.05 0.06 0.07 0.07 0.07 0.10 0.11 0.10 0.10 0.09 0.09 0.10 0.10 0.11 0.11 0.11 0.11 0.11
0.07 0.07 0.06 0.05 0.04 0.06 0.06 0.05 0.03 0.03 0.03 0.05 0.06 0.03 0.01 0.01 0.01 0.01 0.01 0.01 0.00 0.01 0.02 0.04 0.03 0.03 0.04 0.05 0.06 0.06 0.06 0.08 0.10 0.11 0.11 0.09 0.08 0.09 0.10 0.11 0.12 0.13 0.13 0.11
0.06 0.06 0.05 0.04 0.03 0.06 0.07 0.05 0.03 0.02 0.02 0.04 0.04 0.05 0.03 0.02 0.01 0.01 0.00 0.00 0.00 0.00 0.01 0.02 0.02 0.02 0.02 0.03 0.04 0.04 0.04 0.04 0.05 0.06 0.08 0.08 0.06 0.06 0.07 0.08 0.09 0.10 0.11 0.10
0.06 0.04 0.03 0.03 0.03 0.04 0.05 0.04 0.02 0.01 0.01 0.02 0.03 0.03 0.03 0.04 0.02 0.01 0.00 0.00 0.00 0.01 0.00 0.01 0.02 0.02 0.03 0.04 0.04 0.04 0.05 0.06 0.05 0.06 0.06 0.07 0.07 0.06 0.06 0.05 0.05 0.04 0.05 0.06
0.04 0.03 0.02 0.02 0.02 0.04 0.05 0.04 0.02 0.01 0.01 0.01 0.02 0.02 0.02 0.02 0.02 0.01 0.00 0.00 0.01 0.01 0.01 0.00 0.01 0.01 0.02 0.04 0.05 0.06 0.07 0.08 0.08 0.07 0.07 0.06 0.06 0.05 0.04 0.04 0.03 0.03 0.03 0.04
0.04 0.03 0.03 0.03 0.04 0.04 0.03 0.03 0.01 0.01 0.01 0.01 0.02 0.02 0.02 0.02 0.02 0.01 0.01 0.01 0.01 0.01 0.01 0.01 0.01 0.01 0.01 0.02 0.03 0.04 0.05 0.05 0.07 0.08 0.07 0.06 0.05 0.04 0.04 0.03 0.03 0.03 0.02 0.03
0.03 0.02 0.02 0.02 0.02 0.02 0.02 0.02 0.01 0.01 0.01 0.01 0.02 0.02 0.02 0.02 0.02 0.02 0.01 0.01 0.01 0.01 0.01 0.01 0.01 0.01 0.01 0.01 0.01 0.01 0.01 0.00 0.01 0.02 0.03 0.04 0.04 0.03 0.02 0.02 0.02 0.01 0.01 0.01
0.03 0.02 0.02 0.02 0.01 0.01 0.01 0.01 0.01 0.01 0.01 0.01 0.02 0.02 0.02 0.02 0.02 0.02 0.01 0.01 0.01 0.00 0.00 0.01 0.01 0.01 0.01 0.01 0.00 0.00 0.01 0.01 0.00 0.00 0.00 0.01 0.01 0.01 0.02 0.02 0.01 0.01 0.01 0.01
0.03 0.02 0.02 0.02 0.02 0.01 0.02 0.02 0.01 0.01 0.01 0.01 0.02 0.03 0.03 0.02 0.03 0.02 0.02 0.03 0.02 0.01 0.00 0.01 0.01 0.01 0.01 0.01 0.00 0.00 0.00 0.00 0.00 0.00 0.00 0.00 0.00 0.00 0.00 0.00 0.00 0.00 0.01 0.01
0.03 0.03 0.03 0.03 0.03 0.03 0.02 0.02 0.01 0.01 0.01 0.01 0.02 0.02 0.02 0.02 0.01 0.02 0.02 0.02 0.02 0.01 0.01 0.01 0.02 0.02 0.01 0.01 0.00 0.00 0.00 0.00 0.00 0.00 0.00 0.00 0.00 0.00 0.00 0.00 0.00 0.00 0.00 0.00
0.03 0.03 0.04 0.04 0.04 0.05 0.04 0.02 0.02 0.02 0.02 0.01 0.01 0.01 0.01 0.00 0.00 0.01 0.01 0.01 0.01 0.01 0.01 0.01 0.01 0.00 0.00 0.00 0.00 0.00 0.00 0.00 0.00 0.00 0.00 0.00 0.00 0.00 0.00 0.00 0.00 0.00 0.00 0.00
0.03 0.02 0.04 0.05 0.06 0.06 0.04 0.03 0.02 0.03 0.03 0.02 0.02 0.01 0.00 0.00 0.00 0.00 0.00 0.00 0.00 0.00 0.01 0.01 0.00 0.00 0.00 0.00 0.00 0.00 0.00 0.00 0.00 0.00 0.00 0.00 0.00 0.00 0.00 0.00 0.00 0.00 0.00 0.00
MSLP
1004.48 1004.81 1005.20 1005.62 1006.00 1006.31 1006.51 1006.58 1006.51 1006.33 1006.05 1005.73 1005.40 1005.12 1004.90 1004.78 1004.74 1004.79 1004.92 1005.10 1005.33 1005.58 1005.85 1006.13 1006.40 1006.63 1006.82 1006.91 1006.91 1006.78 1006.52 1006.15 1005.71 1005.22 1004.78 1004.42 1004.23 1004.23 1004.45 1004.89 1005.54 1006.34 1007.25 1008.21
1004.33 1004.54 1004.76 1004.96 1005.12 1005.21 1005.22 1005.16 1005.05 1004.90 1004.74 1004.59 1004.47 1004.41 1004.40 1004.43 1004.51 1004.61 1004.74 1004.89 1005.06 1005.25 1005.47 1005.72 1005.98 1006.24 1006.45 1006.58 1006.61 1006.49 1006.23 1005.84 1005.35 1004.82 1004.32 1003.92 1003.69 1003.67 1003.88 1004.34 1005.00 1005.82 1006.76 1007.74
1004.25 1004.34 1004.41 1004.41 1004.36 1004.25 1004.10 1003.93 1003.78 1003.66 1003.60 1003.60 1003.68 1003.81 1003.98 1004.16 1004.33 1004.47 1004.60 1004.70 1004.81 1004.94 1005.11 1005.32 1005.56 1005.82 1006.07 1006.24 1006.30 1006.22 1005.99 1005.62 1005.13 1004.60 1004.09 1003.68 1003.44 1003.41 1003.63 1004.08 1004.74 1005.56 1006.49 1007.46
1004.24 1004.24 1004.16 1004.00 1003.78 1003.50 1003.22 1002.97 1002.78 1002.69 1002.71 1002.85 1003.08 1003.37 1003.69 1003.98 1004.23 1004.42 1004.54 1004.61 1004.66 1004.72 1004.83 1004.99 1005.22 1005.48 1005.74 1005.96 1006.07 1006.04 1005.86 1005.54 1005.10 1004.61 1004.13 1003.75 1003.53 1003.51 1003.73 1004.17 1004.81 1005.59 1006.47 1007.38
1004.29 1004.20 1004.02 1003.74 1003.39 1003.00 1002.63 1002.31 1002.11 1002.04 1002.13 1002.36 1002.72 1003.13 1003.56 1003.95 1004.26 1004.48 1004.59 1004.63 1004.64 1004.65 1004.70 1004.83 1005.02 1005.28 1005.55 1005.79 1005.95 1005.98 1005.88 1005.63 1005.27 1004.86 1004.45 1004.12 1003.94 1003.95 1004.17 1004.59 1005.18 1005.90 1006.70 1007.51
1004.34 1004.20 1003.96 1003.62 1003.20 1002.75 1002.33 1001.99 1001.78 1001.75 1001.88 1002.19 1002.62 1003.12 1003.62 1004.08 1004.43 1004.67 1004.79 1004.82 1004.79 1004.75 1004.76 1004.84 1005.00 1005.23 1005.50 1005.76 1005.95 1006.05 1006.02 1005.86 1005.61 1005.29 1004.98 1004.73 1004.61 1004.65 1004.87 1005.26 1005.80 1006.43 1007.12 1007.81
1004.37 1004.21 1003.95 1003.60 1003.19 1002.74 1002.33 1002.01 1001.82 1001.82 1001.99 1002.33 1002.81 1003.35 1003.90 1004.38 1004.77 1005.02 1005.14 1005.15 1005.10 1005.03 1005.00 1005.03 1005.15 1005.34 1005.59 1005.84 1006.05 1006.19 1006.23 1006.17 1006.01 1005.81 1005.61 1005.46 1005.41 1005.49 1005.71 1006.07 1006.54 1007.08 1007.65 1008.21
1004.34 1004.20 1003.98 1003.69 1003.34 1002.97 1002.62 1002.35 1002.22 1002.24 1002.44 1002.80 1003.29 1003.83 1004.38 1004.87 1005.25 1005.50 1005.62 1005.62 1005.54 1005.45 1005.37 1005.35 1005.41 1005.55 1005.75 1005.97 1006.18 1006.34 1006.43 1006.44 1006.38 1006.29 1006.20 1006.15 1006.18 1006.30 1006.54 1006.87 1007.27 1007.72 1008.18 1008.62
1004.26 1004.18 1004.05 1003.88 1003.65 1003.40 1003.17 1003.00 1002.93 1002.99 1003.21 1003.56 1004.02 1004.54 1005.05 1005.50 1005.86 1006.09 1006.19 1006.17 1006.07 1005.94 1005.82 1005.74 1005.73 1005.79 1005.91 1006.08 1006.25 1006.40 1006.51 1006.58 1006.60 1006.61 1006.62 1006.66 1006.77 1006.94 1007.20 1007.52 1007.88 1008.25 1008.62 1008.96
1004.14 1004.16 1004.18 1004.17 1004.12 1004.03 1003.94 1003.89 1003.90 1004.01 1004.23 1004.55 1004.96 1005.41 1005.85 1006.25 1006.55 1006.74 1006.80 1006.76 1006.63 1006.45 1006.27 1006.12 1006.02 1005.99 1006.02 1006.10 1006.20 1006.31 1006.42 1006.51 1006.59 1006.67 1006.77 1006.90 1007.08 1007.32 1007.60 1007.92 1008.26 1008.59 1008.90 1009.17
1004.04 1004.21 1004.40 1004.58 1004.72 1004.82 1004.90 1004.96 1005.06 1005.20 1005.40 1005.68 1006.01 1006.37 1006.72 1007.03 1007.26 1007.39 1007.41 1007.33 1007.16 1006.94 1006.69 1006.46 1006.26 1006.12 1006.03 1006.00 1006.01 1006.06 1006.13 1006.22 1006.33 1006.46 1006.63 1006.84 1007.10 1007.39 1007.72 1008.06 1008.40 1008.72 1009.01 1009.26
1004.05 1004.38 1004.75 1005.12 1005.46 1005.73 1005.95 1006.13 1006.29 1006.45 1006.63 1006.84 1007.08 1007.34 1007.58 1007.79 1007.94 1008.01 1007.98 1007.85 1007.63 1007.36 1007.05 1006.74 1006.43 1006.17 1005.96 1005.80 1005.70 1005.66 1005.68 1005.75 1005.86 1006.04 1006.26 1006.54 1006.86 1007.22 1007.60 1007.98 1008.35 1008.69 1008.99 1009.26
1004.22 1004.71 1005.25 1005.79 1006.28 1006.71 1007.05 1007.30 1007.50 1007.66 1007.80 1007.93 1008.08 1008.23 1008.37 1008.48 1008.55 1008.55 1008.47 1008.31 1008.06 1007.74 1007.37 1006.97 1006.57 1006.19 1005.86 1005.58 1005.37 1005.24 1005.19 1005.22 1005.33 1005.53 1005.79 1006.13 1006.51 1006.93 1007.37 1007.80 1008.22 1008.60 1008.94 1009.25
1004.60 1005.22 1005.89 1006.56 1007.17 1007.69 1008.10 1008.40 1008.60 1008.74 1008.82 1008.88 1008.94 1008.99 1009.04 1009.08 1009.09 1009.04 1008.92 1008.73 1008.45 1008.10 1007.68 1007.22 1006.74 1006.26 1005.82 1005.43 1005.12 1004.91 1004.79 1004.79 1004.89 1005.10 1005.40 1005.78 1006.22 1006.70 1007.19 1007.68 1008.14 1008.58 1008.97 1009.32
1005.21 1005.92 1006.67 1007.41 1008.07 1008.63 1009.06 1009.36 1009.55 1009.64 1009.67 1009.66 1009.65 1009.63 1009.62 1009.60 1009.56 1009.49 1009.36 1009.16 1008.87 1008.50 1008.05 1007.54 1007.00 1006.46 1005.93 1005.46 1005.08 1004.79 1004.63 1004.59 1004.69 1004.91 1005.23 1005.66 1006.14 1006.67 1007.21 1007.74 1008.25 1008.73 1009.16 1009.56
1006.03 1006.78 1007.56 1008.31 1008.96 1009.50 1009.91 1010.18 1010.32 1010.37 1010.35 1010.30 1010.23 1010.17 1010.13 1010.09 1010.04 1009.97 1009.84 1009.65 1009.37 1009.00 1008.54 1008.02 1007.44 1006.85 1006.28 1005.76 1005.32 1005.00 1004.81 1004.76 1004.85 1005.08 1005.43 1005.88 1006.40 1006.96 1007.54 1008.10 1008.64 1009.14 1009.60 1010.02
1007.01 1007.77 1008.52 1009.22 1009.83 1010.31 1010.65 1010.87 1010.96 1010.97 1010.92 1010.84 1010.75 1010.69 1010.64 1010.61 1010.57 1010.52 1010.42 1010.25 1009.99 1009.63 1009.19 1008.66 1008.09 1007.48 1006.89 1006.36 1005.91 1005.57 1005.38 1005.33 1005.44 1005.69 1006.06 1006.53 1007.06 1007.64 1008.22 1008.79 1009.33 1009.83 1010.30 1010.73
1008.11 1008.83 1009.51 1010.13 1010.65 1011.05 1011.32 1011.48 1011.53 1011.51 1011.45 1011.37 1011.29 1011.24 1011.22 1011.21 1011.21 1011.18 1011.12 1010.98 1010.75 1010.42 1010.00 1009.50 1008.94 1008.35 1007.78 1007.26 1006.83 1006.51 1006.34 1006.32 1006.44 1006.71 1007.09 1007.57 1008.11 1008.68 1009.25 1009.80 1010.32 1010.80 1011.24 1011.64
1009.26 1009.90 1010.50 1011.02 1011.44 1011.75 1011.95 1012.06 1012.09 1012.06 1012.01 1011.95 1011.91 1011.90 1011.91 1011.94 1011.97 1011.98 1011.94 1011.83 1011.62 1011.33 1010.94 1010.47 1009.95 1009.41 1008.88 1008.41 1008.03 1007.76 1007.63 1007.64 1007.80 1008.08 1008.48 1008.95 1009.47 1010.01 1010.55 1011.06 1011.54 1011.97 1012.36 1012.73
1010.37 1010.93 1011.43 1011.85 1012.18 1012.42 1012.57 1012.65 1012.67 1012.66 1012.64 1012.62 1012.63 1012.66 1012.71 1012.78 1012.83 1012.86 1012.84 1012.74 1012.57 1012.30 1011.94 1011.52 1011.06 1010.58 1010.12 1009.72 1009.41 1009.21 1009.13 1009.19 1009.38 1009.68 1010.07 1010.53 1011.02 1011.53 1012.01 1012.47 1012.88 1013.26 1013.60 1013.91
1011.39 1011.86 1012.27 1012.60 1012.86 1013.05 1013.17 1013.24 1013.28 1013.30 1013.33 1013.36 1013.41 1013.48 1013.57 1013.65 1013.72 1013.75 1013.74 1013.65 1013.48 1013.24 1012.92 1012.56 1012.16 1011.76 1011.38 1011.07 1010.85 1010.73 1010.72 1010.83 1011.05 1011.37 1011.75 1012.19 1012.64 1013.09 1013.52 1013.91 1014.27 1014.58 1014.86 1015.12
1012.25 1012.64 1012.97 1013.24 1013.45 1013.60 1013.72 1013.81 1013.88 1013.94 1014.01 1014.09 1014.18 1014.28 1014.38 1014.47 1014.54 1014.56 1014.54 1014.44 1014.29 1014.07 1013.80 1013.50 1013.18 1012.87 1012.60 1012.39 1012.26 1012.22 1012.29 1012.45 1012.70 1013.02 1013.39 1013.79 1014.20 1014.60 1014.97 1015.30 1015.60 1015.86 1016.09 1016.31
1012.91 1013.23 1013.50 1013.72 1013.90 1014.05 1014.18 1014.29 1014.40 1014.50 1014.62 1014.73 1014.85 1014.96 1015.07 1015.15 1015.19 1015.20 1015.16 1015.06 1014.92 1014.73 1014.51 1014.28 1014.05 1013.85 1013.69 1013.59 1013.56 1013.61 1013.74 1013.95 1014.22 1014.54 1014.90 1015.26 1015.63 1015.97 1016.29 1016.57 1016.82 1017.05 1017.25 1017.43
1013.35 1013.62 1013.84 1014.03 1014.19 1014.34 1014.48 1014.62 1014.77 1014.92 1015.06 1015.20 1015.34 1015.45 1015.55 1015.61 1015.63 1015.62 1015.57 1015.47 1015.35 1015.21 1015.05 1014.90 1014.77 1014.67 1014.62 1014.63 1014.71 1014.84 1015.04 1015.28 1015.57 1015.89 1016.22 1016.54 1016.86 1017.16 1017.44 1017.68 1017.90 1018.10 1018.29 1018.46
1013.58 1013.79 1013.98 1014.14 1014.30 1014.46 1014.62 1014.79 1014.97 1015.14 1015.31 1015.47 1015.61 1015.72 1015.80 1015.84 1015.85 1015.83 1015.77 1015.70 1015.61 1015.51 1015.43 1015.38 1015.35 1015.36 1015.42 1015.54 1015.70 1015.91 1016.15 1016.43 1016.72 1017.03 1017.33 1017.62 1017.90 1018.16 1018.40 1018.62 1018.83 1019.02 1019.21 1019.38
1013.63 1013.80 1013.96 1014.10 1014.26 1014.43 1014.61 1014.80 1015.00 1015.20 1015.39 1015.55 1015.70 1015.80 1015.88 1015.91 1015.92 1015.89 1015.85 1015.81 1015.76 1015.74 1015.74 1015.77 1015.85 1015.96 1016.13 1016.33 1016.56 1016.83 1017.11 1017.40 1017.69 1017.98 1018.25 1018.51 1018.75 1018.98 1019.20 1019.40 1019.60 1019.80 1019.99 1020.18
1013.57 1013.70 1013.83 1013.97 1014.13 1014.31 1014.50 1014.72 1014.94 1015.16 1015.36 1015.55 1015.70 1015.81 1015.89 1015.93 1015.94 1015.94 1015.93 1015.92 1015.94 1015.98 1016.06 1016.18 1016.34 1016.54 1016.78 1017.05 1017.34 1017.64 1017.94 1018.23 1018.51 1018.78 1019.02 1019.24 1019.45 1019.65 1019.85 1020.04 1020.24 1020.44 1020.64 1020.84
Thickness
5712 5723 5726 5727 5727 5726 5725 5720 5714 5718 5722 5731 5737 5740 5744 5746 5746 5746 5745 5745 5745 5744 5743 5743 5742 5743 5743 5742 5740 5739 5737 5735 5734 5733 5732 5730 5729 5728 5727 5726 5725 5724 5722 5721
5705 5716 5722 5719 5722 5724 5725 5724 5722 5722 5722 5734 5736 5738 5738 5739 5741 5740 5740 5741 5741 5741 5740 5739 5738 5739 5739 5738 5738 5737 5735 5733 5733 5732 5730 5729 5728 5726 5725 5724 5724 5723 5721 5720
5688 5704 5710 5699 5711 5717 5718 5722 5723 5718 5724 5729 5729 5730 5730 5732 5735 5734 5735 5736 5737 5737 5736 5735 5735 5736 5736 5736 5736 5735 5733 5733 5732 5730 5728 5728 5727 5724 5723 5722 5722 5721 5720 5719
5679 5689 5677 5696 5716 5720 5717 5717 5722 5723 5724 5725 5725 5724 5725 5727 5728 5729 5730 5731 5731 5731 5732 5733 5734 5734 5734 5733 5733 5732 5731 5731 5731 5729 5728 5727 5725 5723 5722 5721 5720 5719 5719 5718
5667 5670 5679 5696 5708 5711 5710 5707 5716 5717 5718 5719 5720 5720 5717 5720 5722 5722 5723 5724 5726 5728 5729 5729 5730 5731 5731 5730 5730 5730 5729 5728 5728 5727 5726 5725 5724 5723 5722 5720 5719 5719 5718 5717
5665 5666 5666 5688 5706 5714 5710 5697 5710 5712 5712 5713 5715 5706 5705 5711 5713 5714 5716 5718 5720 5722 5724 5724 5725 5726 5726 5725 5725 5725 5726 5726 5725 5725 5725 5724 5724 5723 5722 5720 5718 5717 5716 5715
5661 5664 5672 5691 5701 5707 5691 5696 5707 5708 5707 5707 5705 5703 5702 5704 5704 5705 5707 5709 5712 5715 5716 5717 5719 5720 5720 5720 5719 5720 5722 5722 5722 5722 5722 5722 5722 5721 5719 5717 5715 5714 5712 5712
5652 5656 5664 5687 5693 5692 5693 5701 5703 5701 5700 5700 5698 5696 5695 5696 5696 5696 5698 5701 5704 5706 5707 5709 5711 5712 5713 5713 5715 5716 5717 5717 5717 5718 5718 5718 5717 5715 5715 5713 5711 5709 5707 5706
5654 5658 5669 5677 5682 5687 5691 5693 5694 5693 5693 5693 5690 5687 5687 5687 5687 5687 5688 5691 5693 5695 5697 5699 5701 5703 5703 5705 5707 5710 5711 5711 5711 5711 5711 5711 5711 5710 5709 5708 5706 5704 5702 5700
5651 5656 5664 5670 5676 5681 5685 5686 5685 5685 5685 5684 5681 5679 5678 5678 5678 5678 5678 5680 5682 5685 5687 5688 5691 5693 5694 5696 5699 5702 5703 5703 5704 5704 5703 5703 5703 5703 5702 5701 5700 5698 5696 5694
5646 5651 5657 5662 5668 5673 5675 5676 5675 5674 5674 5673 5671 5669 5668 5667 5667 5667 5669 5671 5672 5673 5675 5677 5681 5683 5686 5688 5691 5693 5694 5695 5696 5696 5696 5695 5694 5693 5693 5691 5691 5691 5690 5688
5643 5650 5652 5653 5659 5664 5665 5664 5664 5663 5662 5661 5662 5660 5659 5657 5657 5657 5659 5660 5662 5663 5665 5667 5670 5673 5676 5680 5683 5685 5686 5686 5687 5688 5687 5686 5684 5682 5679 5680 5679 5679 5679 5679
5644 5648 5648 5649 5652 5654 5655 5654 5653 5654 5653 5651 5651 5651 5650 5648 5648 5648 5648 5649 5650 5652 5654 5657 5660 5663 5665 5669 5672 5674 5675 5676 5677 5677 5677 5676 5674 5673 5670 5668 5666 5665 5665 5665
5639 5641 5639 5640 5642 5644 5645 5645 5644 5643 5642 5642 5641 5641 5640 5639 5638 5638 5637 5638 5640 5642 5643 5646 5649 5651 5654 5657 5661 5662 5664 5665 5665 5665 5665 5664 5663 5661 5660 5659 5655 5651 5650 5649
5631 5634 5634 5633 5633 5634 5635 5635 5634 5632 5631 5631 5631 5631 5631 5630 5628 5628 5628 5629 5631 5632 5633 5635 5637 5639 5642 5646 5649 5650 5651 5652 5652 5652 5651 5651 5650 5649 5647 5645 5642 5639 5638 5636
5623 5625 5625 5625 5624 5624 5625 5625 5625 5623 5622 5621 5621 5621 5620 5620 5619 5618 5619 5620 5621 5621 5622 5624 5625 5628 5631 5635 5637 5638 5639 5640 5640 5639 5639 5638 5637 5636 5634 5631 5629 5626 5624 5622
5617 5616 5616 5616 5616 5615 5616 5616 5616 5614 5614 5613 5612 5611 5611 5611 5610 5609 5608 5609 5610 5610 5612 5614 5615 5618 5621 5623 5625 5625 5626 5627 5628 5627 5626 5625 5623 5621 5619 5617 5614 5611 5608 5606
5612 5613 5613 5613 5612 5611 5610 5609 5607 5606 5605 5605 5604 5603 5603 5602 5600 5599 5599 5600 5602 5602 5603 5604 5607 5609 5611 5612 5613 5613 5614 5614 5614 5613 5611 5610 5608 5606 5605 5603 5600 5597 5593 5592
5605 5605 5605 5606 5606 5605 5604 5601 5600 5599 5598 5598 5597 5595 5594 5593 5592 5591 5592 5593 5593 5592 5592 5595 5597 5599 5600 5601 5601 5601 5601 5601 5600 5598 5596 5595 5594 5591 5589 5587 5585 5582 5579 5577
5599 5599 5599 5599 5599 5599 5598 5596 5594 5593 5592 5591 5590 5588 5586 5585 5584 5584 5584 5582 5581 5581 5583 5586 5588 5589 5589 5589 5590 5590 5589 5588 5586 5584 5582 5580 5578 5576 5574 5572 5569 5566 5563 5561
5592 5592 5592 5593 5592 5592 5591 5590 5588 5586 5585 5584 5582 5580 5577 5576 5575 5576 5576 5574 5572 5574 5576 5578 5578 5578 5578 5578 5578 5577 5576 5574 5572 5570 5568 5566 5564 5562 5559 5557 5554 5551 5547 5544
5585 5586 5586 5586 5585 5583 5582 5582 5581 5579 5577 5575 5574 5572 5570 5568 5567 5566 5564 5563 5563 5566 5567 5567 5567 5567 5567 5567 5566 5565 5563 5561 5559 5557 5555 5553 5550 5548 5544 5542 5538 5535 5532 5529
5579 5580 5580 5579 5578 5576 5575 5574 5573 5572 5570 5568 5566 5564 5563 5560 5559 5559 5556 5555 5556 5557 5557 5556 5556 5556 5557 5556 5554 5553 5551 5548 5546 5543 5541 5539 5536 5533 5530 5527 5524 5521 5518 5516
5573 5573 5572 5572 5572 5570 5567 5565 5565 5563 5562 5559 5558 5556 5555 5553 5550 5549 5548 5548 5548 5548 5546 5544 5545 5545 5545 5543 5542 5540 5537 5535 5532 5530 5527 5525 5522 5519 5516 5513 5510 5507 5504 5502
5567 5566 5566 5565 5564 5562 5559 5558 5557 5555 5554 5551 5549 5548 5547 5546 5544 5542 5541 5541 5540 5539 5537 5535 5535 5534 5533 5531 5529 5527 5524 5522 5519 5516 5514 5511 5508 5505 5502 5499 5497 5494 5491 5489
5561 5560 5559 5559 5558 5556 5554 5553 5550 5547 5546 5544 5541 5540 5539 5538 5536 5535 5533 5532 5531 5529 5527 5525 5524 5523 5521 5519 5516 5514 5512 5509 5506 5504 5501 5498 5495 5493 5490 5487 5484 5481 5478 5476
5554 5554 5553 5551 5550 5549 5548 5546 5543 5540 5539 5537 5534 5532 5531 5529 5528 5526 5524 5522 5520 5519 5516 5514 5513 5511 5508 5506 5504 5501 5499 5496 5493 5491 5488 5486 5483 5480 5477 5475 5472 5469 5466 5463